This demonstration page uses our WeatherBlox Daily Observations layout. Learn more.

Left ArrowRight Arrow

Hourly Observations for March 28, 2020

Temp ( °F °C ) Dew Point ( °F °C ) Humidity (%) Winds ( mph kmh ) Pressure ( in mb ) Visibility ( mi km ) Precip ( " mm )
12:51 am 00:51 Clear 40 4.4 24 -4.4 53 53 NNW 8 13 30.08 1019 10 16 0.00 0.00
1:51 am 01:51 Clear 41 5 24 -4.4 51 51 NNW 8 13 30.07 1018 10 16 0.00 0.00
2:51 am 02:51 Clear 39 3.9 24 -4.4 55 55 N 5 7 30.07 1018 10 16 0.00 0.00
3:51 am 03:51 Clear 35 1.7 24 -4.4 64 64 Calm 30.09 1019 10 16 0.00 0.00
4:51 am 04:51 Clear 31 -0.6 23 -5 72 72 ESE 3 6 30.11 1020 10 16 0.00 0.00
5:51 am 05:51 Clear 31 -0.6 23 -5 72 72 SE 6 9 30.13 1020 10 16 0.00 0.00
6:51 am 06:51 Sunny 35 1.7 24 -4.4 64 64 SSE 3 6 30.14 1021 10 16 0.00 0.00
7:51 am 07:51 Sunny 41 5 25 -3.9 53 53 SE 5 7 30.15 1021 10 16 0.00 0.00
8:51 am 08:51 Sunny 47 8.3 26 -3.3 44 44 SSE 5 7 30.14 1021 10 16 0.00 0.00
9:51 am 09:51 Sunny 51 10.6 27 -2.8 39 39 WSW 7 11 30.13 1020 10 16 0.00 0.00
10:51 am 10:51 Sunny 55 12.8 25 -3.9 31 31 NW 9 15 30.12 1020 10 16 0.00 0.00
11:51 am 11:51 Sunny 57 13.9 23 -5 27 27 W 5 7 30.09 1019 10 16 0.00 0.00
12:51 pm 12:51 Sunny 59 15 23 -5 25 25 Calm 30.06 1018 10 16 0.00 0.00
1:51 pm 13:51 Sunny 62 16.7 22 -5.6 21 21 WSW 7 11 30.03 1017 10 16 0.00 0.00
2:51 pm 14:51 Sunny 64 17.8 21 -6.1 19 19 undefined N/A 30.00 1016 10 16 0.00 0.00
3:51 pm 15:51 Sunny 64 17.8 20 -6.7 18 18 VRB 5 7 29.99 1016 10 16 0.00 0.00
4:51 pm 16:51 Sunny 64 17.8 15 -9.4 15 15 WSW 7 11 29.98 1015 10 16 0.00 0.00
5:51 pm 17:51 Sunny 63 17.2 16 -8.9 16 16 Calm 29.99 1016 10 16 0.00 0.00
6:51 pm 18:51 Clear 59 15 19 -7.2 21 21 SW 3 6 29.99 1016 10 16 0.00 0.00
7:51 pm 19:51 Clear 54 12.2 22 -5.6 29 29 WNW 7 11 30.01 1016 10 16 0.00 0.00
8:51 pm 20:51 Clear 51 10.6 23 -5 33 33 WNW 6 9 30.02 1017 10 16 0.00 0.00
9:51 pm 21:51 Clear 48 8.9 25 -3.9 41 41 NE 3 6 30.01 1016 10 16 0.00 0.00
10:51 pm 22:51 Clear 50 10 24 -4.4 36 36 Calm 30.00 1016 10 16 0.00 0.00
11:51 pm 23:51 Clear 45 7.2 25 -3.9 46 46 Calm 30.01 1016 10 16 0.00 0.00

Powered by AerisWeather